This demonstration page uses our WeatherBlox Daily Observations layout. Learn more.

Left ArrowRight Arrow

39.08367, -84.50855

Hourly Observations for May 17, 2017

Temp ( °F °C ) Dew Point ( °F °C ) Humidity (%) Winds ( mph kmh ) Pressure ( in mb ) Visibility ( mi km ) Precip ( " mm )
12:53 am 00:53 Clear 64 17.8 63 17.2 96 96 W 7 11 29.89 1012 10 16.0934 N/A
1:53 am 01:53 Clear 62 16.7 61 16.1 96 96 SSW 7 11 29.9 1012 10 16.0934 N/A
2:53 am 02:53 Clear 61 16.1 61 16.1 100 100 N N/A 29.89 1012 8 12.87472 N/A
3:53 am 03:53 Clear 59 15 59 15 100 100 SSW 7 11 29.89 1012 8 12.87472 N/A
4:53 am 04:53 Clear 61 16.1 61 16.1 100 100 N N/A 29.92 1013 8 12.87472 N/A
5:53 am 05:53 Clear 61 16.1 61 16.1 100 100 N N/A 29.92 1013 8 12.87472 N/A
6:53 am 06:53 Mostly Cloudy 61 16.1 61 16.1 100 100 N N/A 29.94 1014 10 16.0934 N/A
7:53 am 07:53 Mostly Cloudy 65 18.3 63 17.2 93 93 N N/A 29.97 1015 10 16.0934 N/A
8:53 am 08:53 Cloudy 70 21.1 66 18.9 87 87 SSW 7 11 29.97 1015 10 16.0934 N/A
9:53 am 09:53 Partly Cloudy 76 24.4 65 18.3 69 69 S 10 17 29.98 1015 10 16.0934 N/A
10:53 am 10:53 Partly Cloudy 81 27.2 65 18.3 58 58 SSW 13 20 29.97 1015 10 16.0934 N/A
11:53 am 11:53 Partly Cloudy 83 28.3 65 18.3 55 55 SSW 17 28 29.97 1015 10 16.0934 N/A
12:53 pm 12:53 Mostly Sunny 84 28.9 65 18.3 53 53 SSW 18 30 29.96 1015 10 16.0934 N/A
1:53 pm 13:53 Mostly Sunny 84 28.9 63 17.2 49 49 SW 15 24 29.94 1014 10 16.0934 N/A
2:53 pm 14:53 Mostly Sunny 83 28.3 64 17.8 53 53 SSW 16 26 29.92 1013 10 16.0934 N/A
3:53 pm 15:53 Sunny 83 28.3 65 18.3 55 55 SSW 12 19 29.91 1013 10 16.0934 N/A
4:53 pm 16:53 Sunny 84 28.9 65 18.3 53 53 SSW 15 24 29.89 1012 10 16.0934 N/A
5:53 pm 17:53 Sunny 83 28.3 64 17.8 53 53 SSW 17 28 29.88 1012 10 16.0934 N/A
6:53 pm 18:53 Sunny 82 27.8 65 18.3 56 56 SSW 16 26 29.86 1011 10 16.0934 N/A
7:53 pm 19:53 Sunny 80 26.7 66 18.9 62 62 SSW 9 15 29.86 1011 10 16.0934 N/A
8:53 pm 20:53 Clear 76 24.4 64 17.8 67 67 S 6 9 29.85 1011 10 16.0934 N/A
9:53 pm 21:53 Clear 75 23.9 63 17.2 66 66 S 8 13 29.87 1011 10 16.0934 N/A
10:53 pm 22:53 Clear 72 22.2 62 16.7 71 71 SSW 5 7 29.89 1012 10 16.0934 N/A
11:53 pm 23:53 Mostly Clear 74 23.3 61 16.1 64 64 VRB 5 7 29.87 1011 10 16.0934 N/A

Powered by AerisWeather